Location: Lawrence Hall of Science
(37.8785°N, 122.2415°W)
Time: 14:09:57
(UTC-08:00)

Cosmos 2151 - Visible Passes

Search period start: 18 January 2017 00:00
Search period end: 28 January 2017 00:00
Orbit: 581 x 603 km, 82.5° (Epoch: 18 January)

Date Brightness Start Highest point End Pass type
(mag) Time Alt. Az. Time Alt. Az. Time Alt. Az.
18 Jan 2.8 05:52:58 10° NNW 05:57:11 70° W 06:01:23 10° S visible
18 Jan 2.8 18:17:54 10° S 18:22:04 70° E 18:26:16 10° NNE visible
19 Jan 6.0 04:26:29 10° NE 04:28:34 13° ENE 04:30:39 10° ESE visible
19 Jan 3.3 06:02:41 14° NNW 06:06:05 43° W 06:10:06 10° SSW visible
19 Jan 3.2 18:26:50 10° SSW 18:31:02 72° W 18:35:14 10° N visible
20 Jan 5.4 04:36:01 16° NE 04:37:41 20° ENE 04:40:52 10° ESE visible
20 Jan 3.9 06:12:41 17° NW 06:14:58 27° W 06:18:33 10° SSW visible
20 Jan 4.1 18:36:00 10° SSW 18:40:01 44° W 18:44:03 10° N visible
21 Jan 4.7 04:46:07 29° ENE 04:46:45 31° ENE 04:50:32 10° SE visible
21 Jan 4.4 06:22:47 17° WNW 06:23:47 18° W 06:26:40 10° SW visible
21 Jan 5.0 18:45:24 10° SW 18:49:02 28° WNW 18:52:43 10° NNW visible
22 Jan 3.9 04:56:16 46° ESE 04:56:16 46° ESE 04:59:54 10° SSE visible
22 Jan 4.9 06:32:57 11° W 06:32:57 11° W 06:33:58 10° WSW visible
22 Jan 5.7 18:55:09 10° WSW 18:58:07 19° WNW 19:01:07 10° NNW visible
23 Jan 4.1 05:06:28 36° SSE 05:06:28 36° SSE 05:09:01 10° S visible
23 Jan 6.1 19:05:33 10° W 19:07:15 12° WNW 19:08:57 10° NW visible
24 Jan 4.9 05:16:41 19° S 05:16:41 19° S 05:17:55 10° S visible
26 Jan 4.4 17:52:35 10° SSW 17:56:33 41° W 18:00:32 10° N visible
27 Jan 5.3 18:02:02 10° SW 18:05:35 26° WNW 18:09:09 10° NNW visible
